CTV793 WAHS-WIII

Flight info

Callsign CTV793
Flight time 0h 48m
Altitude 28000
Route KIDET W16 IMU
Aircraft A320/M-SDE2E3FGHIRWY/LB1

Departure

Time 2026-04-16 09:31
Airport Jenderal Ahmad Yani Airport (WAHS)

Arrival

Time 2026-04-16 10:19
Airport Soekarno-Hatta International Airport (WIII)
Time Latitude Longitude Altitude Speed Heading
2026-04-16 09:05 -6.96737 110.37489 19 ft 0 kts 40°
2026-04-16 09:24 -6.96754 110.37475 19 ft 4 kts 40°
2026-04-16 09:24 -6.96774 110.37458 19 ft 4 kts 39°
2026-04-16 09:24 -6.96796 110.37446 19 ft 4 kts 353°
2026-04-16 09:25 -6.96818 110.37457 19 ft 4 kts 312°
2026-04-16 09:25 -6.96823 110.37463 18 ft 0 kts 310°
2026-04-16 09:27 -6.96816 110.37455 18 ft 7 kts 310°
2026-04-16 09:27 -6.96772 110.37403 18 ft 10 kts 310°
2026-04-16 09:27 -6.96721 110.37342 18 ft 14 kts 310°
2026-04-16 09:28 -6.96653 110.37261 20 ft 13 kts 310°
2026-04-16 09:28 -6.96631 110.37187 18 ft 11 kts 227°
2026-04-16 09:28 -6.96698 110.37129 17 ft 16 kts 220°
2026-04-16 09:28 -6.96787 110.37052 8 ft 17 kts 233°
2026-04-16 09:29 -6.96743 110.36947 8 ft 20 kts 310°
2026-04-16 09:29 -6.96636 110.36821 6 ft 26 kts 310°
2026-04-16 09:29 -6.96516 110.36679 5 ft 27 kts 310°
2026-04-16 09:29 -6.96389 110.36531 4 ft 28 kts 311°
2026-04-16 09:30 -6.96294 110.36405 4 ft 16 kts 288°
2026-04-16 09:30 -6.96246 110.36350 4 ft 9 kts 59°
2026-04-16 09:30 -6.96276 110.36394 4 ft 0 kts 130°
2026-04-16 09:30 -6.96284 110.36404 4 ft 11 kts 130°
2026-04-16 09:31 -6.96504 110.36667 5 ft 86 kts 130°
2026-04-16 09:31 -6.97030 110.37287 6 ft 145 kts 130°
2026-04-16 09:31 -6.97772 110.38168 239 ft 171 kts 130°
2026-04-16 09:31 -6.98442 110.39154 914 ft 171 kts 114°
2026-04-16 09:32 -6.98913 110.40252 1505 ft 174 kts 109°
2026-04-16 09:32 -6.99378 110.41456 1765 ft 195 kts 109°
2026-04-16 09:32 -6.99892 110.42800 2006 ft 217 kts 110°
2026-04-16 09:32 -7.00039 110.44386 2262 ft 244 kts 78°
2026-04-16 09:33 -6.99156 110.45903 2749 ft 264 kts 40°
2026-04-16 09:33 -6.97467 110.46620 3598 ft 271 kts
2026-04-16 09:33 -6.95607 110.46256 4395 ft 282 kts 332°
2026-04-16 09:33 -6.94137 110.44938 5203 ft 288 kts 307°
2026-04-16 09:34 -6.93089 110.43220 6047 ft 290 kts 297°
2026-04-16 09:34 -6.92214 110.41380 6882 ft 292 kts 294°
2026-04-16 09:34 -6.91364 110.39517 7675 ft 295 kts 295°
2026-04-16 09:34 -6.90467 110.37647 8441 ft 298 kts 297°
2026-04-16 09:35 -6.89530 110.35814 9174 ft 300 kts 298°
2026-04-16 09:35 -6.88529 110.33961 9880 ft 303 kts 299°
2026-04-16 09:35 -6.87490 110.32107 10594 ft 306 kts 300°
2026-04-16 09:35 -6.86400 110.30196 10854 ft 326 kts 300°
2026-04-16 09:36 -6.85225 110.28156 11012 ft 347 kts 300°
2026-04-16 09:36 -6.83995 110.26029 11492 ft 355 kts 300°
2026-04-16 09:36 -6.82749 110.23870 12112 ft 359 kts 300°
2026-04-16 09:36 -6.81494 110.21690 12739 ft 362 kts 300°
2026-04-16 09:37 -6.80230 110.19491 13353 ft 365 kts 300°
2026-04-16 09:37 -6.78955 110.17270 13936 ft 368 kts 300°
2026-04-16 09:37 -6.77666 110.15027 14479 ft 372 kts 300°
2026-04-16 09:37 -6.76366 110.12761 15029 ft 376 kts 300°
2026-04-16 09:38 -6.75057 110.10474 15567 ft 379 kts 299°
2026-04-16 09:38 -6.73740 110.08166 16102 ft 382 kts 299°
2026-04-16 09:38 -6.72409 110.05842 16601 ft 385 kts 300°
2026-04-16 09:38 -6.71059 110.03503 17110 ft 388 kts 300°
2026-04-16 09:39 -6.69695 110.01147 17595 ft 391 kts 300°
2026-04-16 09:39 -6.68318 109.98770 18081 ft 394 kts 300°
2026-04-16 09:39 -6.66933 109.96378 18564 ft 397 kts 300°
2026-04-16 09:39 -6.65538 109.93967 19016 ft 400 kts 300°
2026-04-16 09:40 -6.64133 109.91535 19459 ft 404 kts 300°
2026-04-16 09:40 -6.62717 109.89077 19883 ft 408 kts 300°
2026-04-16 09:40 -6.61288 109.86598 20309 ft 412 kts 300°
2026-04-16 09:40 -6.59844 109.84096 20714 ft 415 kts 300°
2026-04-16 09:41 -6.58387 109.81575 21132 ft 419 kts 300°
2026-04-16 09:41 -6.56916 109.79036 21532 ft 422 kts 300°
2026-04-16 09:41 -6.55434 109.76478 21914 ft 425 kts 300°
2026-04-16 09:41 -6.53938 109.73898 22288 ft 428 kts 300°
2026-04-16 09:42 -6.52434 109.71300 22644 ft 432 kts 300°
2026-04-16 09:42 -6.50920 109.68684 22999 ft 434 kts 300°
2026-04-16 09:42 -6.49397 109.66048 23331 ft 437 kts 300°
2026-04-16 09:42 -6.47862 109.63392 23653 ft 440 kts 300°
2026-04-16 09:43 -6.46341 109.60759 23969 ft 443 kts 300°
2026-04-16 09:43 -6.44788 109.58071 24270 ft 446 kts 301°
2026-04-16 09:43 -6.43222 109.55371 24573 ft 448 kts 301°
2026-04-16 09:43 -6.41647 109.52659 24886 ft 450 kts 301°
2026-04-16 09:44 -6.40067 109.49932 25175 ft 453 kts 301°
2026-04-16 09:44 -6.38480 109.47191 25463 ft 455 kts 300°
2026-04-16 09:44 -6.36885 109.44437 25755 ft 457 kts 301°
2026-04-16 09:44 -6.35281 109.41672 26032 ft 459 kts 301°
2026-04-16 09:45 -6.33670 109.38897 26312 ft 460 kts 301°
2026-04-16 09:45 -6.32094 109.36092 26587 ft 462 kts 296°
2026-04-16 09:45 -6.30909 109.33090 26855 ft 463 kts 286°
2026-04-16 09:45 -6.30243 109.29922 27115 ft 464 kts 276°
2026-04-16 09:46 -6.30102 109.26678 27352 ft 466 kts 269°
2026-04-16 09:46 -6.30131 109.23417 27589 ft 468 kts 269°
2026-04-16 09:46 -6.30152 109.20141 27770 ft 469 kts 269°
2026-04-16 09:46 -6.30166 109.16896 27811 ft 458 kts 269°
2026-04-16 09:47 -6.30174 109.13717 27813 ft 452 kts 269°
2026-04-16 09:47 -6.30181 109.10563 27813 ft 450 kts 269°
2026-04-16 09:47 -6.30191 109.07418 27813 ft 450 kts 269°
2026-04-16 09:47 -6.29989 109.04288 27813 ft 450 kts 281°
2026-04-16 09:48 -6.29139 109.01267 27816 ft 450 kts 288°
2026-04-16 09:48 -6.28182 108.98273 27813 ft 450 kts 288°
2026-04-16 09:48 -6.27215 108.95282 27813 ft 450 kts 288°
2026-04-16 09:48 -6.26559 108.93262 27813 ft 450 kts 288°
2026-04-16 09:49 -6.25587 108.90274 27812 ft 450 kts 288°
2026-04-16 09:49 -6.24615 108.87287 27810 ft 450 kts 288°
2026-04-16 09:49 -6.23645 108.84302 27809 ft 449 kts 288°
2026-04-16 09:49 -6.22369 108.80349 27809 ft 449 kts 288°
2026-04-16 09:50 -6.21721 108.78333 27808 ft 449 kts 288°
2026-04-16 09:50 -6.20761 108.75348 27807 ft 449 kts 288°
2026-04-16 09:50 -6.19802 108.72365 27807 ft 449 kts 288°
2026-04-16 09:50 -6.18841 108.69382 27809 ft 448 kts 288°
2026-04-16 09:51 -6.17880 108.66402 27809 ft 448 kts 288°
2026-04-16 09:51 -6.16933 108.63466 27809 ft 448 kts 288°
2026-04-16 09:51 -6.15972 108.60489 27808 ft 448 kts 288°
2026-04-16 09:51 -6.15010 108.57510 27806 ft 448 kts 288°
2026-04-16 09:52 -6.14050 108.54536 27805 ft 447 kts 288°
2026-04-16 09:52 -6.13088 108.51564 27803 ft 447 kts 288°
2026-04-16 09:52 -6.12128 108.48599 27801 ft 447 kts 288°
2026-04-16 09:52 -6.11170 108.45629 27799 ft 447 kts 288°
2026-04-16 09:53 -6.10212 108.42655 27797 ft 447 kts 288°
2026-04-16 09:53 -6.09257 108.39692 27797 ft 446 kts 288°
2026-04-16 09:53 -6.08304 108.36717 27794 ft 446 kts 288°
2026-04-16 09:53 -6.07360 108.33746 27793 ft 446 kts 288°
2026-04-16 09:54 -6.06418 108.30775 27797 ft 446 kts 288°
2026-04-16 09:54 -6.05474 108.27805 27798 ft 446 kts 288°
2026-04-16 09:54 -6.04528 108.24835 27798 ft 446 kts 288°
2026-04-16 09:54 -6.03585 108.21865 27799 ft 446 kts 288°
2026-04-16 09:55 -6.02642 108.18893 27800 ft 446 kts 288°
2026-04-16 09:55 -6.01700 108.15922 27801 ft 446 kts 288°
2026-04-16 09:55 -6.00756 108.12952 27802 ft 446 kts 288°
2026-04-16 09:55 -5.99812 108.09982 27803 ft 446 kts 288°
2026-04-16 09:56 -5.98865 108.07014 27803 ft 446 kts 288°
2026-04-16 09:56 -5.97916 108.04047 27803 ft 446 kts 288°
2026-04-16 09:56 -5.96971 108.01078 27803 ft 446 kts 287°
2026-04-16 09:56 -5.96316 107.98040 27801 ft 445 kts 276°
2026-04-16 09:57 -5.96160 107.94938 27800 ft 445 kts 269°
2026-04-16 09:57 -5.96171 107.91830 27798 ft 445 kts 269°
2026-04-16 09:57 -5.96175 107.88722 27797 ft 445 kts 269°
2026-04-16 09:57 -5.96175 107.85613 27797 ft 445 kts 270°
2026-04-16 09:58 -5.96174 107.82505 27797 ft 445 kts 270°
2026-04-16 09:58 -5.96171 107.79400 27402 ft 445 kts 270°
2026-04-16 09:58 -5.96169 107.76291 26758 ft 444 kts 270°
2026-04-16 09:58 -5.96167 107.73206 26221 ft 440 kts 270°
2026-04-16 09:59 -5.96165 107.70146 25677 ft 436 kts 270°
2026-04-16 09:59 -5.96163 107.67114 25166 ft 432 kts 270°
2026-04-16 09:59 -5.96163 107.64107 24664 ft 429 kts 270°
2026-04-16 09:59 -5.96164 107.61130 24148 ft 425 kts 270°
2026-04-16 10:00 -5.96164 107.58172 23691 ft 421 kts 270°
2026-04-16 10:00 -5.96165 107.55233 23150 ft 419 kts 270°
2026-04-16 10:00 -5.96165 107.52370 22758 ft 412 kts 270°
2026-04-16 10:01 -5.96172 107.46717 21533 ft 400 kts 269°
2026-04-16 10:01 -5.96176 107.43941 21034 ft 395 kts 269°
2026-04-16 10:01 -5.96178 107.41193 20545 ft 392 kts 269°
2026-04-16 10:01 -5.96179 107.38463 20059 ft 390 kts 269°
2026-04-16 10:02 -5.96176 107.35744 19570 ft 388 kts 269°
2026-04-16 10:02 -5.96171 107.33050 19180 ft 384 kts 269°
2026-04-16 10:02 -5.96167 107.30393 18833 ft 378 kts 269°
2026-04-16 10:02 -5.96161 107.27762 18368 ft 375 kts 269°
2026-04-16 10:03 -5.96154 107.25151 17937 ft 372 kts 269°
2026-04-16 10:03 -5.96147 107.22561 17462 ft 367 kts 269°
2026-04-16 10:03 -5.96142 107.20019 16758 ft 361 kts 269°
2026-04-16 10:03 -5.96138 107.17496 16304 ft 360 kts 269°
2026-04-16 10:04 -5.96134 107.14985 15854 ft 359 kts 269°
2026-04-16 10:04 -5.96132 107.12488 15481 ft 355 kts 269°
2026-04-16 10:04 -5.96130 107.10007 15046 ft 354 kts 269°
2026-04-16 10:04 -5.96126 107.07547 14588 ft 353 kts 269°
2026-04-16 10:05 -5.96121 107.05097 14261 ft 348 kts 269°
2026-04-16 10:05 -5.96116 107.02688 13704 ft 342 kts 269°
2026-04-16 10:05 -5.96113 107.00320 13256 ft 337 kts 269°
2026-04-16 10:05 -5.96109 106.97972 12813 ft 335 kts 269°
2026-04-16 10:06 -5.96105 106.95622 12318 ft 337 kts 269°
2026-04-16 10:06 -5.96102 106.93282 11833 ft 331 kts 269°
2026-04-16 10:06 -5.96098 106.90985 11331 ft 327 kts 269°
2026-04-16 10:06 -5.96091 106.88708 10857 ft 325 kts 269°
2026-04-16 10:07 -5.96081 106.86429 10396 ft 326 kts 269°
2026-04-16 10:07 -5.96072 106.84217 10249 ft 305 kts 269°
2026-04-16 10:07 -5.96065 106.82132 10021 ft 295 kts 269°
2026-04-16 10:07 -5.96064 106.80106 9993 ft 286 kts 267°
2026-04-16 10:08 -5.96364 106.78130 10019 ft 288 kts 253°
2026-04-16 10:08 -5.97064 106.76253 9565 ft 291 kts 247°
2026-04-16 10:08 -5.97829 106.74384 9155 ft 290 kts 247°
2026-04-16 10:08 -5.98605 106.72500 8830 ft 286 kts 246°
2026-04-16 10:09 -5.99358 106.70669 8447 ft 285 kts 246°
2026-04-16 10:09 -6.00111 106.68830 8031 ft 285 kts 247°
2026-04-16 10:09 -6.00855 106.67003 7664 ft 282 kts 247°
2026-04-16 10:09 -6.01592 106.65182 7307 ft 280 kts 247°
2026-04-16 10:10 -6.02322 106.63372 6911 ft 278 kts 248°
2026-04-16 10:10 -6.03045 106.61579 6507 ft 275 kts 248°
2026-04-16 10:10 -6.03740 106.59860 6292 ft 257 kts 248°
2026-04-16 10:10 -6.04403 106.58222 5884 ft 250 kts 247°
2026-04-16 10:11 -6.05049 106.56624 5758 ft 247 kts 248°
2026-04-16 10:11 -6.05695 106.55022 5449 ft 247 kts 248°
2026-04-16 10:11 -6.06340 106.53425 5067 ft 247 kts 248°
2026-04-16 10:11 -6.06984 106.51832 4670 ft 246 kts 248°
2026-04-16 10:12 -6.07630 106.50233 4257 ft 248 kts 248°
2026-04-16 10:12 -6.08275 106.48637 3927 ft 246 kts 248°
2026-04-16 10:12 -6.08917 106.47045 3609 ft 244 kts 248°
2026-04-16 10:12 -6.09542 106.45493 3467 ft 236 kts 248°
2026-04-16 10:13 -6.10154 106.43985 3354 ft 229 kts 245°
2026-04-16 10:13 -6.11078 106.42768 3216 ft 214 kts 213°
2026-04-16 10:13 -6.12438 106.42264 3028 ft 210 kts 181°
2026-04-16 10:13 -6.13869 106.42446 2754 ft 207 kts 168°
2026-04-16 10:14 -6.15285 106.42708 2486 ft 207 kts 169°
2026-04-16 10:14 -6.16606 106.43208 2223 ft 203 kts 139°
2026-04-16 10:14 -6.17401 106.44333 2121 ft 199 kts 104°
2026-04-16 10:14 -6.17514 106.45703 2111 ft 199 kts 87°
2026-04-16 10:15 -6.17480 106.47091 2098 ft 199 kts 87°
2026-04-16 10:15 -6.17447 106.48483 2101 ft 199 kts 87°
2026-04-16 10:15 -6.17224 106.49846 2101 ft 198 kts 68°
2026-04-16 10:15 -6.16708 106.51122 2116 ft 193 kts 66°
2026-04-16 10:16 -6.16238 106.52294 2107 ft 169 kts 67°
2026-04-16 10:16 -6.15819 106.53340 2092 ft 157 kts 67°
2026-04-16 10:16 -6.15416 106.54343 2102 ft 153 kts 67°
2026-04-16 10:16 -6.15020 106.55335 2042 ft 154 kts 67°
2026-04-16 10:17 -6.14626 106.56323 1808 ft 151 kts 66°
2026-04-16 10:17 -6.14236 106.57301 1602 ft 150 kts 66°
2026-04-16 10:17 -6.13848 106.58271 1397 ft 149 kts 66°
2026-04-16 10:17 -6.13463 106.59236 1207 ft 148 kts 65°
2026-04-16 10:18 -6.13080 106.60196 1021 ft 148 kts 66°
2026-04-16 10:18 -6.12693 106.61152 823 ft 148 kts 65°
2026-04-16 10:18 -6.12305 106.62108 610 ft 148 kts 67°
2026-04-16 10:18 -6.11952 106.63059 410 ft 147 kts 67°
2026-04-16 10:19 -6.11566 106.64014 179 ft 148 kts 67°
2026-04-16 10:19 -6.11189 106.64964 45 ft 142 kts 68°
2026-04-16 10:19 -6.10876 106.65738 41 ft 95 kts 68°
2026-04-16 10:19 -6.10693 106.66191 40 ft 46 kts 68°
2026-04-16 10:20 -6.10625 106.66400 39 ft 30 kts 83°
2026-04-16 10:20 -6.10646 106.66568 38 ft 19 kts 101°
2026-04-16 10:20 -6.10668 106.66640 38 ft 10 kts 121°
2026-04-16 10:20 -6.10715 106.66675 38 ft 8 kts 161°
2026-04-16 10:21 -6.10764 106.66686 38 ft 7 kts 179°
2026-04-16 10:21 -6.10808 106.66644 38 ft 13 kts 248°
2026-04-16 10:21 -6.10841 106.66559 37 ft 12 kts 248°
2026-04-16 10:21 -6.10871 106.66485 38 ft 11 kts 247°
2026-04-16 10:22 -6.10898 106.66418 38 ft 12 kts 249°
2026-04-16 10:22 -6.10943 106.66303 38 ft 23 kts 248°
2026-04-16 10:22 -6.11006 106.66145 39 ft 25 kts 248°
2026-04-16 10:22 -6.11070 106.65984 38 ft 22 kts 248°
2026-04-16 10:23 -6.11129 106.65835 39 ft 24 kts 248°
2026-04-16 10:23 -6.11193 106.65676 39 ft 26 kts 248°
2026-04-16 10:23 -6.11261 106.65505 39 ft 27 kts 248°
2026-04-16 10:23 -6.11331 106.65329 39 ft 24 kts 248°
2026-04-16 10:24 -6.11393 106.65174 39 ft 18 kts 248°
2026-04-16 10:24 -6.11481 106.65137 41 ft 14 kts 160°
2026-04-16 10:24 -6.11564 106.65154 42 ft 11 kts 189°
2026-04-16 10:24 -6.11633 106.65101 42 ft 15 kts 229°
2026-04-16 10:25 -6.11698 106.65031 42 ft 13 kts 222°
2026-04-16 10:25 -6.11765 106.64980 41 ft 12 kts 217°
2026-04-16 10:25 -6.11845 106.64969 39 ft 15 kts 205°
2026-04-16 10:25 -6.11906 106.64859 39 ft 20 kts 248°
2026-04-16 10:26 -6.11949 106.64751 39 ft 12 kts 248°
2026-04-16 10:26 -6.11984 106.64664 39 ft 17 kts 248°
2026-04-16 10:26 -6.12031 106.64547 39 ft 19 kts 249°
2026-04-16 10:26 -6.12082 106.64427 39 ft 17 kts 225°
2026-04-16 10:27 -6.12187 106.64439 38 ft 15 kts 158°
2026-04-16 10:27 -6.12283 106.64477 38 ft 14 kts 158°
2026-04-16 10:27 -6.12373 106.64513 38 ft 16 kts 159°
2026-04-16 10:27 -6.12484 106.64557 38 ft 17 kts 158°
2026-04-16 10:28 -6.12597 106.64601 38 ft 17 kts 159°
2026-04-16 10:28 -6.12712 106.64647 36 ft 19 kts 158°
2026-04-16 10:28 -6.12841 106.64699 49 ft 18 kts 158°
2026-04-16 10:28 -6.12931 106.64735 59 ft 10 kts 158°
2026-04-16 10:29 -6.13013 106.64768 48 ft 16 kts 158°
2026-04-16 10:29 -6.13111 106.64809 38 ft 15 kts 155°
2026-04-16 10:29 -6.13126 106.64898 38 ft 15 kts 68°
2026-04-16 10:29 -6.13092 106.65002 38 ft 16 kts 88°
2026-04-16 10:30 -6.13160 106.65058 38 ft 13 kts 156°
2026-04-16 10:30 -6.13231 106.65092 38 ft 7 kts 150°
2026-04-16 10:30 -6.13265 106.65115 37 ft 5 kts 138°
2026-04-16 10:30 -6.13269 106.65144 38 ft 3 kts 71°
2026-04-16 10:31 -6.13254 106.65154 37 ft 2 kts 33°
2026-04-16 10:31 -6.13245 106.65160 38 ft 2 kts 32°
2026-04-16 10:31 -6.13234 106.65167 37 ft 1 kts 32°
2026-04-16 10:31 -6.13233 106.65168 38 ft 0 kts 32°